STARLINK-2316 (47984 NORAD) Tracking and Keplerian Element Data

This shows tracking and keplerian element data for the satellite.

Feedback or suggestion? Click here.




ElementValue
Catalog47984
NameSTARLINK-2316
Epoch Orbit187
Epoch Day170.58334491
Epoch Year2021
RAAN130.881
Inclination53.0467
Eccentricity0.0002203
Argument of Perigee27.9008
Mean Anonmoly302.3265
Mean Motion15.7322891
Decay Rate-7.393E-05
L11 47984U 21024H 21170.58334491 -.00007393 00000-0 -48215-4 0 9997
L22 47984 53.0467 130.8810 0002203 27.9008 302.3265 15.73228910 1878

Live tracking and technical data element details for STARLINK-2316 (NORAD 47984). STARLINK-2316 can be tracked NOW for your location showing map with azimuth and elevation plus other details from your city location.

Track the satellite on the map from your city or location and see movement details for azimuth, elevation, latitude, longitude, range, height, and movement on the map or in text.







IsCatalogInMostPopularTable: catalog: 47984, numindb: 45
Update: records affected: 1



GetName: 47984 STARLINK-2316

Hit Count: updated at: Mon, 21 Jun 2021 04:33:44 GMT